Change the Weather History Date:

Sunday, February 17, 2013

  Actual Average (K3TH) Record (K3TH)
Temperature  
Mean Temperature 23 °F -  
Max Temperature 25 °F 37 °F 46 °F (1998)
Min Temperature 21 °F 26 °F 19 °F (2001)
Degree Days  
Heating Degree Days 42    
Moisture  
Dew Point 20 °F    
Average Humidity 88    
Maximum Humidity 100    
Minimum Humidity 80    
Precipitation  
Precipitation 0.00 in - - ()
Sea Level Pressure  
Sea Level Pressure 29.90 in    
Wind  
Wind Speed 6 mph (NW)    
Max Wind Speed 10 mph    
Max Gust Speed 20 mph    
Visibility 3 miles    
Events Fog , Snow    
Averages and records for this station are not official NWS values.
T = Trace of Precipitation, MM = Missing Value Source: NWS Daily Summary

Daily Weather History Graph

Daily Weather History Graph

Search for Another Location

Airport or City:

Trip Planner

Search our weather history database for the weather conditions in past years. The results will help you decide how hot, cold, wet, or windy it might be!

Date:

Astronomy

Feb. 17, 2013 Rise Set
Actual Time 6:44 AM PST 5:09 PM PST
Civil Twilight 6:12 AM PST 5:41 PM PST
Nautical Twilight 5:36 AM PST 6:17 PM PST
Astronomical Twilight 5:01 AM PST 6:52 PM PST
Moon 10:07 AM PST (2/17) 12:41 AM PST (2/17)
Length of Visible Light 11h 28m
Length of Day
10h 25m
Waxing Crescent, 50% of the Moon is Illuminated
Feb 17
Waxing Crescent
Feb 17
First Quarter
Feb 25
Full
Mar 4
Last Quarter
Mar 11
New

Hourly Weather History & Observations

Time (PST) Temp. Windchill Dew Point Humidity Pressure Visibility Wind Dir Wind Speed Gust Speed Precip Events Conditions
12:09 AM 21.2 °F 11.7 °F 21.2 °F 100% 29.78 in 1.5 mi WNW 8.1 mph - 0.00 in Snow Light Snow
12:14 AM 21.2 °F 13.6 °F 21.2 °F 100% 29.78 in 3.0 mi Variable 5.8 mph 19.6 mph 0.00 in Snow Light Snow
12:44 AM 21.2 °F 12.6 °F 21.2 °F 100% 29.78 in 1.5 mi Variable 6.9 mph - 0.00 in Snow Light Snow
12:51 AM 21.2 °F 14.9 °F 21.2 °F 100% 29.78 in 1.0 mi Variable 4.6 mph - 0.00 in Snow Light Snow
12:53 AM 21.9 °F 15.7 °F 21.9 °F 100% 29.86 in 1.2 mi Variable 4.6 mph - 0.00 in Snow Light Snow
1:04 AM 21.2 °F 12.6 °F 21.2 °F 100% 29.78 in 0.2 mi Variable 6.9 mph - 0.00 in Fog , Snow Snow
1:13 AM 21.2 °F 11.7 °F 21.2 °F 100% 29.78 in 0.8 mi WSW 8.1 mph - 0.00 in Snow Light Snow
1:20 AM 21.2 °F 14.9 °F 21.2 °F 100% 29.78 in 1.2 mi Variable 4.6 mph - 0.00 in Snow Light Snow
1:31 AM 21.2 °F 10.1 °F 21.2 °F 100% 29.79 in 0.2 mi NW 10.4 mph 18.4 mph 0.00 in Fog , Snow Heavy Snow
1:48 AM 21.2 °F 13.6 °F 21.2 °F 100% 29.80 in 0.5 mi NW 5.8 mph - 0.00 in Fog , Snow Light Snow
1:53 AM 21.9 °F 14.5 °F 21.0 °F 96% 29.88 in 0.8 mi Variable 5.8 mph - 0.00 in Snow Light Snow
2:09 AM 21.2 °F 12.6 °F 21.2 °F 100% 29.79 in 0.5 mi Variable 6.9 mph - 0.00 in Fog , Snow Light Snow
2:14 AM 21.2 °F 13.6 °F 19.4 °F 93% 29.79 in 1.0 mi Variable 5.8 mph - 0.00 in Snow Light Snow
2:17 AM 21.2 °F 12.6 °F 19.4 °F 93% 29.79 in 2.5 mi Variable 6.9 mph - 0.00 in Snow Light Snow
2:24 AM 21.2 °F 16.4 °F 19.4 °F 93% 29.79 in 8.0 mi Variable 3.5 mph - 0.00 in Snow Light Snow
2:39 AM 21.2 °F 14.9 °F 21.2 °F 100% 29.79 in 1.5 mi WNW 4.6 mph - 0.00 in Snow Light Snow
2:53 AM 21.9 °F 15.7 °F 21.0 °F 96% 29.89 in 0.5 mi Variable 4.6 mph - 0.00 in Fog , Snow Light Snow
3:03 AM 21.2 °F 13.6 °F 21.2 °F 100% 29.79 in 0.2 mi Variable 5.8 mph - 0.00 in Fog , Snow Heavy Snow
3:15 AM 21.2 °F 12.6 °F 19.4 °F 93% 29.79 in 0.8 mi NW 6.9 mph - 0.00 in Snow Light Snow
3:45 AM 21.2 °F 11.7 °F 19.4 °F 93% 29.79 in 1.5 mi West 8.1 mph - 0.00 in Snow Light Snow
3:49 AM 21.2 °F 12.6 °F 19.4 °F 93% 29.79 in 3.0 mi Variable 6.9 mph - 0.00 in Snow Light Snow
3:53 AM 21.9 °F 17.2 °F 19.9 °F 92% 29.90 in 4.0 mi Variable 3.5 mph - 0.00 in   Overcast
4:15 AM 21.2 °F 10.9 °F 19.4 °F 93% 29.80 in 7.0 mi WNW 9.2 mph 18.4 mph N/A   Overcast
4:19 AM 21.2 °F 12.6 °F 19.4 °F 93% 29.80 in 2.0 mi Variable 6.9 mph - 0.00 in Snow Light Snow
4:21 AM 21.2 °F 14.9 °F 19.4 °F 93% 29.80 in 1.0 mi Variable 4.6 mph - 0.00 in Snow Light Snow
4:29 AM 21.2 °F 11.7 °F 19.4 °F 93% 29.80 in 0.5 mi West 8.1 mph - 0.00 in Fog , Snow Light Snow
5:23 AM 21.2 °F 13.6 °F 19.4 °F 93% 29.80 in 1.0 mi Variable 5.8 mph - 0.00 in Snow Light Snow
5:33 AM 21.2 °F 16.4 °F 19.4 °F 93% 29.81 in 0.8 mi Variable 3.5 mph - 0.00 in   Mist
5:53 AM 21.9 °F 15.7 °F 19.9 °F 92% 29.92 in 0.5 mi Variable 4.6 mph - 0.00 in Fog , Snow Light Snow
6:01 AM 21.2 °F 16.4 °F 19.4 °F 93% 29.81 in 0.2 mi West 3.5 mph - 0.00 in Fog , Snow Light Snow
6:08 AM 21.2 °F 14.9 °F 19.4 °F 93% 29.81 in 0.2 mi Variable 4.6 mph - 0.00 in Fog , Snow Light Snow
6:13 AM 21.2 °F 13.6 °F 19.4 °F 93% 29.80 in 0.5 mi WSW 5.8 mph - 0.00 in Fog , Snow Light Snow
6:45 AM 21.2 °F 14.9 °F 19.4 °F 93% 29.81 in 0.5 mi Variable 4.6 mph - 0.00 in Fog , Snow Light Snow
6:53 AM 21.9 °F 14.5 °F 19.0 °F 89% 29.93 in 0.5 mi Variable 5.8 mph - 0.00 in Fog , Snow Light Snow
7:14 AM 21.2 °F 11.7 °F 19.4 °F 93% 29.82 in 0.5 mi NW 8.1 mph - 0.00 in Fog , Snow Light Snow
7:22 AM 21.2 °F 12.6 °F 19.4 °F 93% 29.82 in 0.5 mi NNW 6.9 mph - 0.00 in Fog , Snow Light Snow
7:35 AM 23.0 °F 13.1 °F 19.4 °F 86% 29.83 in 0.2 mi NW 9.2 mph - 0.00 in Fog , Snow Light Snow
7:53 AM 23.0 °F 15.8 °F 19.9 °F 88% 29.95 in 0.2 mi Variable 5.8 mph - 0.00 in Fog , Snow Light Snow
8:53 AM 23.0 °F 13.9 °F 19.9 °F 88% 29.98 in 0.2 mi NW 8.1 mph - 0.00 in Fog , Snow Light Snow
9:53 AM 24.1 °F 15.2 °F 19.9 °F 84% 29.99 in 0.2 mi NW 8.1 mph - 0.00 in Fog Light Freezing Fog
10:53 AM 24.1 °F 18.2 °F 19.9 °F 84% 30.01 in 0.2 mi Variable 4.6 mph - 0.00 in Fog , Snow Light Snow
11:10 AM 24.8 °F 15.3 °F 19.4 °F 80% 29.88 in - NW 9.2 mph - 0.00 in Snow Light Snow
11:25 AM 24.8 °F 15.3 °F 19.4 °F 80% 29.88 in 0.2 mi NW 9.2 mph - 0.00 in Fog , Snow Light Snow
11:53 AM 25.0 °F 18.1 °F 19.9 °F 81% 30.01 in 0.2 mi Variable 5.8 mph - 0.00 in   Haze
12:10 PM 24.8 °F 20.5 °F 19.4 °F 80% 29.88 in - Variable 3.5 mph - N/A   Overcast
12:23 PM 24.8 °F 16.9 °F 19.4 °F 80% 29.88 in 0.2 mi Variable 6.9 mph - N/A   Haze
12:53 PM 25.0 °F 19.3 °F 19.9 °F 81% 30.01 in 0.2 mi Variable 4.6 mph - N/A   Haze
1:53 PM 25.0 °F 16.3 °F 19.9 °F 81% 30.02 in 0.2 mi NNW 8.1 mph 18.4 mph 0.00 in Snow Heavy Snow
2:37 PM 24.8 °F 16.9 °F 19.4 °F 80% 29.90 in 0.8 mi NW 6.9 mph - 0.00 in   Haze
2:44 PM 24.8 °F 17.9 °F 19.4 °F 80% 29.90 in 1.0 mi Variable 5.8 mph - 0.00 in   Haze
2:53 PM 24.1 °F 16.0 °F 19.9 °F 84% 30.04 in 0.5 mi NW 6.9 mph - 0.00 in Fog Light Freezing Fog
3:04 PM 24.8 °F 17.9 °F 19.4 °F 80% 29.90 in 1.5 mi Variable 5.8 mph - N/A   Overcast
3:06 PM 24.8 °F 17.9 °F 19.4 °F 80% 29.90 in 6.0 mi Variable 5.8 mph - N/A   Overcast
3:14 PM 24.8 °F 19.1 °F 19.4 °F 80% 29.90 in 10.0 mi Variable 4.6 mph - N/A   Overcast
3:38 PM 24.8 °F 19.1 °F 19.4 °F 80% 29.90 in 5.0 mi Variable 4.6 mph - 0.00 in Snow Light Snow
3:53 PM 24.1 °F 19.7 °F 19.0 °F 81% 30.04 in 9.0 mi Variable 3.5 mph - 0.00 in Snow Light Snow
3:56 PM 24.8 °F 20.5 °F 19.4 °F 80% 29.91 in 9.0 mi Variable 3.5 mph - 0.00 in Snow Light Snow
4:09 PM 24.8 °F 19.1 °F 19.4 °F 80% 29.91 in 8.0 mi Variable 4.6 mph - 0.00 in Snow Light Snow
4:22 PM 23.0 °F 15.8 °F 19.4 °F 86% 29.91 in 1.8 mi Variable 5.8 mph - 0.00 in Snow Light Snow
4:25 PM 23.0 °F 17.0 °F 19.4 °F 86% 29.91 in 1.2 mi Variable 4.6 mph - 0.00 in Snow Light Snow
4:43 PM 24.8 °F - 19.4 °F 80% 29.91 in 0.8 mi Calm Calm - 0.00 in Snow Light Snow
5:04 PM 24.8 °F 17.9 °F 19.4 °F 80% 29.91 in 0.2 mi NNW 5.8 mph - 0.00 in Fog , Snow Heavy Snow
5:24 PM 23.0 °F 17.0 °F 19.4 °F 86% 29.91 in 0.5 mi Variable 4.6 mph - 0.00 in Fog , Snow Snow
5:49 PM 23.0 °F 14.7 °F 19.4 °F 86% 29.92 in 1.0 mi NNW 6.9 mph - 0.00 in Snow Light Snow
5:53 PM 23.0 °F 14.7 °F 19.0 °F 85% 30.06 in 1.0 mi NNW 6.9 mph - 0.00 in Snow Light Snow
6:09 PM 23.0 °F 17.0 °F 19.4 °F 86% 29.92 in 0.8 mi Variable 4.6 mph - 0.00 in   Mist
6:18 PM 23.0 °F 15.8 °F 19.4 °F 86% 29.92 in 1.5 mi NNW 5.8 mph - 0.00 in   Overcast
6:22 PM 23.0 °F 17.0 °F 19.4 °F 86% 29.92 in 3.0 mi NNW 4.6 mph - 0.00 in   Overcast
6:35 PM 23.0 °F 15.8 °F 19.4 °F 86% 29.92 in 10.0 mi Variable 5.8 mph - 0.00 in   Overcast
6:51 PM 23.0 °F 15.8 °F 19.4 °F 86% 29.92 in 10.0 mi NW 5.8 mph - 0.00 in   Overcast
6:53 PM 23.0 °F 15.8 °F 19.0 °F 85% 30.06 in 8.0 mi NW 5.8 mph - 0.00 in Snow Light Snow
7:13 PM 23.0 °F 18.4 °F 19.4 °F 86% 29.93 in 0.5 mi Variable 3.5 mph - 0.00 in Fog , Snow Snow
7:39 PM 23.0 °F 15.8 °F 19.4 °F 86% 29.93 in 1.0 mi NW 5.8 mph - 0.00 in Snow Light Snow
7:43 PM 23.0 °F 13.9 °F 19.4 °F 86% 29.93 in 2.0 mi NW 8.1 mph - 0.00 in Snow Light Snow
7:53 PM 23.0 °F 14.7 °F 19.9 °F 88% 30.07 in 1.2 mi Variable 6.9 mph - 0.00 in Snow Light Snow
8:04 PM 23.0 °F 14.7 °F 19.4 °F 86% 29.93 in 1.5 mi NW 6.9 mph - 0.00 in Snow Light Snow
8:07 PM 23.0 °F 14.7 °F 19.4 °F 86% 29.93 in 2.0 mi Variable 6.9 mph - 0.00 in Snow Light Snow
8:22 PM 24.8 °F 17.9 °F 19.4 °F 80% 29.94 in 3.0 mi NW 5.8 mph - 0.00 in   Overcast
8:33 PM 24.8 °F 16.9 °F 19.4 °F 80% 29.94 in 10.0 mi NW 6.9 mph - 0.00 in   Overcast
9:15 PM 24.8 °F 17.9 °F 19.4 °F 80% 29.95 in 9.0 mi Variable 5.8 mph - 0.00 in   Overcast
9:51 PM 23.0 °F 18.4 °F 19.4 °F 86% 29.95 in 10.0 mi SW 3.5 mph - 0.00 in   Overcast
9:53 PM 23.0 °F 18.4 °F 19.0 °F 85% 30.08 in 10.0 mi Variable 3.5 mph - 0.00 in   Overcast
10:04 PM 23.0 °F 18.4 °F 19.4 °F 86% 29.95 in 10.0 mi Variable 3.5 mph - N/A   Overcast
10:23 PM 23.0 °F 18.4 °F 19.4 °F 86% 29.95 in 2.5 mi Variable 3.5 mph - 0.00 in Snow Light Snow
10:30 PM 23.0 °F - 19.4 °F 86% 29.95 in 8.0 mi Calm Calm - 0.00 in Snow Light Snow
10:40 PM 23.0 °F - 19.4 °F 86% 29.95 in 2.0 mi Calm Calm - 0.00 in Snow Light Snow
10:45 PM 23.0 °F 18.4 °F 19.4 °F 86% 29.95 in 8.0 mi NW 3.5 mph - 0.00 in   Overcast
10:51 PM 23.0 °F - 19.4 °F 86% 29.95 in 2.0 mi Calm Calm - 0.00 in   Overcast
10:52 PM 23.0 °F - 19.9 °F 88% 30.09 in 2.0 mi Calm Calm - 0.00 in   Overcast
10:56 PM 23.0 °F - 19.4 °F 86% 29.95 in 1.8 mi Calm Calm - N/A   Overcast
11:02 PM 24.8 °F - 19.4 °F 80% 29.95 in 0.8 mi Calm Calm - N/A   Overcast
11:10 PM 23.0 °F 17.0 °F 19.4 °F 86% 29.95 in 1.5 mi NNW 4.6 mph - 0.00 in Snow Light Snow
11:13 PM 23.0 °F 18.4 °F 19.4 °F 86% 29.95 in 3.0 mi Variable 3.5 mph - 0.00 in Snow Light Snow
11:26 PM 23.0 °F 18.4 °F 19.4 °F 86% 29.95 in 6.0 mi Variable 3.5 mph - 0.00 in   Overcast
11:34 PM 23.0 °F 18.4 °F 19.4 °F 86% 29.95 in 1.8 mi NNW 3.5 mph - 0.00 in   Overcast
11:44 PM 23.0 °F 14.7 °F 19.4 °F 86% 29.95 in 3.0 mi NW 6.9 mph - 0.00 in   Overcast
11:53 PM 23.0 °F 17.0 °F 19.9 °F 88% 30.08 in 10.0 mi NW 4.6 mph - 0.00 in   Overcast